Algona
Sunday 1:15 PM
Temperature70° (70°/55°)
Dew Point48°
Relative Humidity46
%
Visibility10
mi
Pressure1024.4
mb
Wind DirectionS
190°
Wind Speed20
mph
(G25)
Precipitation Today0.00"

Last 30 Observations

Time PresWx Temp DP Feels RH% Vsby Pressure Ceiling Direction Speed 1h Precip
12:55 PM 70° 48° 46
%
10
mi
1024.4
mb
7,000
ft
S
170°
17
mph
0.00"
12:35 PM 70° 46° 43
%
10
mi
1024.4
mb
7,000
ft
0.00"
12:15 PM 70° 45° 40
%
10
mi
1024.4
mb
S
170°
21
mph
0.00"
11:55 AM 70° 46° 43
%
10
mi
1024.7
mb
SSE
150°
16
mph
0.00"
11:35 AM 68° 48° 49
%
10
mi
1025.1
mb
S
170°
16
mph
(G23)
0.00"
11:15 AM 68° 48° 49
%
10
mi
1025.1
mb
7,500
ft
SSE
160°
16
mph
0.00"
10:55 AM 66° 48° 52
%
10
mi
1025.4
mb
7,500
ft
SSE
160°
13
mph
0.00"
10:35 AM 64° 46° 52
%
10
mi
1025.4
mb
7,500
ft
SSE
160°
15
mph
(G22)
0.00"
10:15 AM 66° 48° 52
%
10
mi
1025.4
mb
7,500
ft
SSE
160°
11
mph
0.00"
9:55 AM 64° 48° 56
%
10
mi
1025.7
mb
7,500
ft
SSE
160°
14
mph
0.00"
9:35 AM 63° 46° 55
%
10
mi
1025.7
mb
7,500
ft
SE
140°
10
mph
0.00"
9:15 AM 61° 46° 59
%
10
mi
1026.1
mb
7,500
ft
SE
140°
10
mph
0.00"
8:55 AM 61° 45° 55
%
10
mi
1025.7
mb
7,500
ft
SE
140°
10
mph
0.00"
8:35 AM 59° 45° 59
%
10
mi
1026.1
mb
8,000
ft
SE
130°
11
mph
0.00"
8:15 AM 59° 45° 59
%
10
mi
1025.7
mb
7,500
ft
SE
130°
9
mph
0.00"
7:55 AM 57° 43° 59
%
10
mi
1025.4
mb
9,000
ft
SE
140°
11
mph
0.00"
7:35 AM 57° 43° 59
%
10
mi
1025.4
mb
9,000
ft
SE
130°
11
mph
0.00"
7:15 AM 57° 43° 59
%
10
mi
1025.1
mb
9,000
ft
SE
130°
9
mph
0.00"
6:55 AM 57° 43° 59
%
10
mi
1025.1
mb
10,000
ft
ESE
120°
8
mph
0.00"
6:35 AM 57° 43° 59
%
10
mi
1024.7
mb
10,000
ft
SE
130°
10
mph
0.00"
6:15 AM 57° 43° 59
%
10
mi
1025.1
mb
10,000
ft
ESE
110°
9
mph
0.00"
5:55 AM 57° 43° 59
%
10
mi
1024.4
mb
10,000
ft
ESE
120°
9
mph
0.00"
5:35 AM 55° 43° 62
%
10
mi
1024.4
mb
SE
130°
9
mph
0.00"
5:15 AM 55° 43° 62
%
10
mi
1024.1
mb
SE
130°
10
mph
0.00"
4:55 AM 55° 43° 62
%
10
mi
1024.1
mb
ESE
120°
9
mph
0.00"
4:35 AM 55° 43° 62
%
10
mi
1024.1
mb
ESE
120°
9
mph
0.00"
4:15 AM 55° 43° 62
%
10
mi
1024.1
mb
ESE
120°
9
mph
0.00"
3:55 AM 55° 45° 67
%
10
mi
1024.4
mb
ESE
120°
7
mph
0.00"
3:35 AM 55° 46° 72
%
10
mi
1024.4
mb
ESE
110°
8
mph
0.00"
3:15 AM 55° 46° 72
%
10
mi
1024.4
mb
ESE
120°
8
mph
0.00"